Date String (YYYY-MM-DD hh:mm:ss) UTC,Instrument flags,Ambient pressure (hPa),Sample flow (lpm),Bypass flow (lpm),Sample temperature (°C),Ambient temperature (°C),ASC tube jacket temperature (°C),LED temperature (°C),Box temperature (°C),Sample RH (%),Span deviation,Mass concentration (μg/m³),Mass concentration (μg/m³),Mass concentration (μg/m³)
DateTimeUTC,F1_M11,P_M11,Q1_M11,Q2_M11,T1_M11,T2_M11,T3_M11,T4_M11,T5_M11,U1_M11,ZSPAN_M11,X0_M11,X2_M11,X1_M11
2023-04-27 18:00:00,,0824.4,5.00,0.00,27.4,26.1,00.0,35.6,29.0,11.7,0000.0,0006.19,0001.96,0001.18
2023-04-27 18:01:00,,0824.4,5.00,0.00,27.4,26.2,00.0,35.6,29.0,11.1,0000.0,0006.17,0002.00,0001.17
2023-04-27 18:02:00,,0824.3,5.01,0.00,27.4,26.2,00.0,35.6,29.0,10.7,0000.0,0006.14,0002.01,0001.17
2023-04-27 18:03:00,,0824.3,4.99,0.00,27.4,26.2,00.0,35.6,29.0,11.1,0000.0,0005.48,0002.01,0001.18
2023-04-27 18:04:00,,0824.3,5.00,0.00,27.4,26.2,00.0,35.7,29.0,10.7,0000.0,0005.42,0002.00,0001.18
2023-04-27 18:05:00,,0824.3,5.00,0.00,27.5,26.3,00.0,35.7,29.1,10.7,0000.0,0005.35,0001.96,0001.16
2023-04-27 18:06:00,,0824.3,5.01,0.00,27.5,26.3,00.0,35.7,29.1,10.7,0000.0,0005.03,0001.89,0001.14
2023-04-27 18:07:00,,0824.3,5.00,0.00,27.5,26.3,00.0,35.7,29.0,11.1,0000.0,0004.94,0001.86,0001.14
2023-04-27 18:08:00,,0824.3,5.00,0.00,27.5,26.3,00.0,35.7,29.1,11.3,0000.0,0004.61,0001.89,0001.15
2023-04-27 18:09:00,,0824.3,4.99,0.00,27.5,26.3,00.0,35.7,29.1,11.4,0000.0,0003.93,0001.94,0001.14
2023-04-27 18:10:00,,0824.2,5.01,0.00,27.5,26.4,00.0,35.8,29.1,11.0,0000.0,0004.57,0002.00,0001.15
2023-04-27 18:11:00,,0824.2,5.00,0.00,27.6,26.4,00.0,35.8,29.1,10.6,0000.0,0004.36,0001.97,0001.15
2023-04-27 18:12:00,,0824.0,5.00,0.00,27.6,26.4,00.0,35.8,29.1,10.7,0000.0,0004.24,0001.91,0001.15
2023-04-27 18:13:00,,0823.9,4.99,0.00,27.6,26.4,00.0,35.8,29.1,10.4,0000.0,0004.73,0001.88,0001.15
2023-04-27 18:14:00,,0823.9,4.99,0.00,27.6,26.4,00.0,35.8,29.1,10.9,0000.0,0005.11,0001.85,0001.14
2023-04-27 18:15:00,,0824.0,5.00,0.00,27.6,26.4,00.0,35.8,29.2,10.2,0000.0,0004.91,0001.80,0001.13
2023-04-27 18:16:00,,0824.1,5.00,0.00,27.6,26.4,00.0,35.9,29.2,10.2,0000.0,0005.20,0001.80,0001.13
2023-04-27 18:17:00,,0824.2,5.00,0.00,27.7,26.4,00.0,35.9,29.3,10.4,0000.0,0005.32,0001.81,0001.13
2023-04-27 18:18:00,,0824.2,5.00,0.00,27.7,26.5,00.0,35.9,29.2,10.2,0000.0,0005.38,0001.85,0001.13
2023-04-27 18:19:00,,0824.0,4.99,0.00,27.7,26.5,00.0,35.9,29.2,10.1,0000.0,0005.18,0001.81,0001.13
2023-04-27 18:20:00,,0824.0,5.00,0.00,27.7,26.5,00.0,35.9,29.3,10.0,0000.0,0005.01,0001.79,0001.14
2023-04-27 18:21:00,,0824.0,5.00,0.00,27.7,26.5,00.0,36.0,29.3,10.2,0000.0,0004.48,0001.78,0001.15
2023-04-27 18:22:00,,0824.1,5.00,0.00,27.8,26.5,00.0,36.0,29.3,10.1,0000.0,0004.66,0001.85,0001.15
2023-04-27 18:23:00,,0824.1,5.00,0.00,27.8,26.5,00.0,36.0,29.3,10.2,0000.0,0004.93,0001.92,0001.15
2023-04-27 18:24:00,,0824.2,5.01,0.00,27.8,26.6,00.0,36.0,29.3,10.1,0000.0,0004.60,0002.00,0001.15
2023-04-27 18:25:00,,0824.1,5.00,0.00,27.8,26.6,00.0,36.0,29.4,09.8,0000.0,0004.31,0002.09,0001.16
2023-04-27 18:26:00,,0823.9,5.01,0.00,27.8,26.6,00.0,36.0,29.4,09.9,0000.0,0004.33,0002.10,0001.17
2023-04-27 18:27:00,,0824.0,4.99,0.00,27.9,26.7,00.0,36.1,29.5,09.8,0000.0,0004.23,0002.14,0001.18
2023-04-27 18:28:00,,0824.0,4.99,0.00,27.9,26.7,00.0,36.1,29.5,09.8,0000.0,0004.31,0002.21,0001.18
2023-04-27 18:29:00,,0823.9,5.01,0.00,27.9,26.7,00.0,36.1,29.5,10.1,0000.0,0004.27,0002.16,0001.17
2023-04-27 18:30:00,,0823.9,5.00,0.00,27.9,26.7,00.0,36.1,29.5,10.2,0000.0,0004.60,0002.23,0001.17
2023-04-27 18:31:00,,0823.8,4.99,0.00,27.9,26.8,00.0,36.1,29.5,09.5,0000.0,0004.71,0002.24,0001.16
2023-04-27 18:32:00,,0823.8,4.99,0.00,27.9,26.8,00.0,36.2,29.5,09.3,0000.0,0004.76,0002.28,0001.16
2023-04-27 18:33:00,,0823.8,5.00,0.00,28.0,26.8,00.0,36.2,29.5,09.3,0000.0,0004.70,0002.32,0001.17
2023-04-27 18:34:00,,0823.8,5.01,0.00,28.0,26.8,00.0,36.2,29.5,09.1,0000.0,0004.60,0002.31,0001.16
2023-04-27 18:35:00,,0823.8,5.00,0.00,28.0,26.8,00.0,36.2,29.5,09.6,0000.0,0004.83,0002.31,0001.16
2023-04-27 18:36:00,,0823.9,4.99,0.00,28.0,26.8,00.0,36.2,29.6,09.4,0000.0,0005.31,0002.28,0001.16
2023-04-27 18:37:00,,0823.8,5.01,0.00,28.0,26.9,00.0,36.2,29.6,09.4,0000.0,0005.59,0002.35,0001.15
2023-04-27 18:38:00,,0823.8,5.00,0.00,28.1,26.9,00.0,36.3,29.6,10.0,0000.0,0005.45,0002.32,0001.13
2023-04-27 18:39:00,,0823.9,4.99,0.00,28.1,26.9,00.0,36.3,29.6,09.8,0000.0,0005.49,0002.32,0001.14
2023-04-27 18:40:00,,0823.9,5.00,0.00,28.1,26.9,00.0,36.3,29.6,09.8,0000.0,0005.51,0002.32,0001.14
2023-04-27 18:41:00,,0823.9,5.02,0.00,28.1,26.9,00.0,36.3,29.6,09.8,0000.0,0005.19,0002.25,0001.14
2023-04-27 18:42:00,,0823.9,4.99,0.00,28.1,26.9,00.0,36.3,29.6,09.7,0000.0,0005.11,0002.26,0001.15
2023-04-27 18:43:00,,0823.8,4.99,0.00,28.1,26.9,00.0,36.3,29.6,10.2,0000.0,0004.98,0002.20,0001.15
2023-04-27 18:44:00,,0823.8,5.00,0.00,28.2,26.9,00.0,36.4,29.7,10.6,0000.0,0004.80,0002.10,0001.14
2023-04-27 18:45:00,,0823.7,5.00,0.00,28.2,26.9,00.0,36.4,29.7,09.8,0000.0,0004.67,0002.04,0001.13
2023-04-27 18:46:00,,0823.6,5.00,0.00,28.2,26.9,00.0,36.4,29.7,09.4,0000.0,0004.35,0002.00,0001.11
2023-04-27 18:47:00,,0823.4,5.00,0.00,28.2,26.8,00.0,36.4,29.7,09.6,0000.0,0003.78,0001.95,0001.10
2023-04-27 18:48:00,,0823.4,5.00,0.00,28.2,26.8,00.0,36.4,29.7,09.5,0000.0,0003.68,0001.92,0001.10
2023-04-27 18:49:00,,0823.5,5.02,0.00,28.2,26.7,00.0,36.4,29.7,09.3,0000.0,0003.77,0001.96,0001.10
2023-04-27 18:50:00,,0823.6,5.01,0.00,28.2,26.7,00.0,36.4,29.7,09.6,0000.0,0003.82,0001.96,0001.09
2023-04-27 18:51:00,,0823.6,4.99,0.00,28.2,26.7,00.0,36.4,29.7,09.7,0000.0,0003.90,0002.00,0001.10
2023-04-27 18:52:00,,0823.6,5.00,0.00,28.2,26.7,00.0,36.5,29.7,09.5,0000.0,0004.19,0002.08,0001.10
2023-04-27 18:53:00,,0823.6,5.00,0.00,28.2,26.6,00.0,36.5,29.7,09.4,0000.0,0004.14,0002.06,0001.09
2023-04-27 18:54:00,,0823.6,5.00,0.00,28.2,26.6,00.0,36.5,29.7,09.6,0000.0,0004.43,0002.12,0001.08
2023-04-27 18:55:00,,0823.6,5.00,0.00,28.1,26.6,00.0,36.5,29.6,09.3,0000.0,0004.69,0002.14,0001.09
2023-04-27 18:56:00,,0823.5,5.00,0.00,28.1,26.6,00.0,36.5,29.6,09.2,0000.0,0004.89,0002.19,0001.10
2023-04-27 18:57:00,,0823.5,5.00,0.00,28.1,26.6,00.0,36.5,29.6,09.5,0000.0,0005.27,0002.30,0001.12
2023-04-27 18:58:00,,0823.4,5.00,0.00,28.2,26.6,00.0,36.5,29.7,09.4,0000.0,0005.56,0002.41,0001.13
2023-04-27 18:59:00,,0823.4,5.00,0.00,28.2,26.6,00.0,36.5,29.7,09.8,0000.0,0005.63,0002.46,0001.16
